AO-07 1 07530U 74089B 19261.95048632 -.00000041 00000-0 22747-4 0 9991 2 07530 101.7555 228.6997 0012079 167.3719 226.9931 12.53639790 52089 UO-11 1 14781U 84021B 19261.86135272 .00000024 00000-0 90738-5 0 9997 2 14781 97.6070 282.1991 0009058 26.6220 333.5457 14.83106469912424 LO-19 1 20442U 90005G 19262.39933420 -.00000005 00000-0 14674-4 0 9991 2 20442 98.6543 204.2699 0010775 233.4189 126.6004 14.32932882549651 HUBBLE 1 20580U 90037B 19262.76313657 .00000366 00000-0 11296-4 0 9990 2 20580 28.4700 316.4909 0002909 49.5134 243.8444 15.09267615414961 MET-2/21 1 22782U 93055A 19262.66070597 .00000009 00000-0 -46018-5 0 9997 2 22782 82.5457 89.2928 0021059 278.1665 152.0466 13.83820345315723 AO-27 1 22825U 93061C 19262.55542494 -.00000014 00000-0 12739-4 0 9998 2 22825 98.9106 253.3421 0009516 88.6737 271.5535 14.30066522355228 IO-26 1 22826U 93061D 19262.74530280 -.00000008 00000-0 14757-4 0 9995 2 22826 98.9047 253.5162 0010023 78.1265 282.1040 14.30400527355453 FO-29 1 24278U 96046B 19261.38885270 -.00000001 00000-0 35411-4 0 9998 2 24278 98.5514 42.4079 0350386 2.4615 357.8151 13.53092904140209 NOAA-15 1 25338U 98030A 19262.53153511 .00000007 00000-0 21655-4 0 9995 2 25338 98.7432 283.6134 0009936 339.1214 20.9558 14.25931299110470 GO-32 1 25397U 98043D 19261.89824003 -.00000007 00000-0 15960-4 0 9996 2 25397 98.6936 200.9466 0002231 109.4250 250.7170 14.23670576100997 ISS 1 25544U 98067A 19263.03061258 .00000395 00000-0 14919-4 0 9991 2 25544 51.6437 250.8767 0007416 66.7263 323.9465 15.50094679189973 NO-44 1 26931U 01043C 19262.06694830 -.00000031 00000-0 19801-4 0 9993 2 26931 67.0504 125.3080 0007451 271.2142 88.8105 14.30552562938182 SO-50 1 27607U 02058C 19262.12647776 -.00000041 00000-0 15166-4 0 9996 2 27607 64.5543 126.9884 0076858 238.6163 120.7405 14.75571830900674 CO-55 1 27844U 03031E 19262.87196862 .00000030 00000-0 32995-4 0 9994 2 27844 98.6853 269.6958 0010850 118.4357 241.7916 14.22194860841532 CO-57 1 27848U 03031J 19262.25731216 .00000015 00000-0 26420-4 0 9997 2 27848 98.6930 269.6096 0010574 130.5192 229.6909 14.21787853841299 RS-22 1 27939U 03042A 19262.82293575 .00000047 00000-0 17037-4 0 9993 2 27939 98.0545 36.8924 0013757 129.0621 231.1814 14.66802810854192 NOAA-18 1 28654U 05018A 19262.36377127 .00000075 00000-0 65538-4 0 9998 2 28654 99.0869 310.6814 0013253 277.3550 82.6115 14.12452644738592 CO-58 1 28895U 05043F 19262.34390884 .00000094 00000-0 26865-4 0 9997 2 28895 97.9726 41.9685 0017956 61.8436 298.4578 14.63690948741031 Falconsat-3 1 30776U 07006E 19262.35494883 .00001896 00000-0 53444-4 0 9998 2 30776 35.4342 219.1629 0003583 239.6509 120.3864 15.36489546694946 CO-65 1 32785U 08021C 19261.85940956 .00000158 00000-0 22686-4 0 9993 2 32785 97.5544 257.2472 0012108 323.2878 36.7509 14.88344718617399 AAUSAT2 1 32788U 08021F 19262.02969669 .00000210 00000-0 24288-4 0 9997 2 32788 97.4961 273.6735 0010303 247.3126 112.7007 14.94794473618714 DO-64 1 32789U 08021G 19261.71153793 .00000441 00000-0 33386-4 0 9991 2 32789 97.4562 308.5667 0012705 163.4112 196.7534 15.07110664620826 CO-66 1 32791U 08021J 19262.25935219 .00000114 00000-0 16971-4 0 9993 2 32791 97.5308 263.6892 0011836 292.6353 67.3614 14.90869212617903 RS-30 1 32953U 08025A 19262.68389201 .00000020 00000-0 75656-4 0 9999 2 32953 82.4983 86.9313 0018758 287.8054 72.0973 12.43091265513865 PRISM 1 33493U 09002B 19261.85560629 .00000341 00000-0 35395-4 0 9990 2 33493 98.1196 186.3038 0014033 236.1147 123.8739 14.96727403578930 NOAA-19 1 33591U 09005A 19262.49235212 .00000033 00000-0 43358-4 0 9996 2 33591 99.1864 255.8880 0014870 116.3902 243.8797 14.12376729547017 TISAT-1 1 36799U 10035E 19261.48101403 .00000120 00000-0 18254-4 0 9990 2 36799 98.1677 56.7441 0013160 140.4769 219.7410 14.91155291498444 JUGNU 1 37839U 11058B 19262.06756285 .00000312 00000-0 24203-4 0 9995 2 37839 19.9606 134.5950 0018887 265.1324 216.4019 14.12658701410334 SRMSAT 1 37841U 11058D 19261.23339685 .00000304 00000-0 22066-4 0 9993 2 37841 019.9709 198.3241 0012042 122.2851 228.8844 14.10638895409530 AO-71 1 37854U 11061E 19262.74184746 .00000747 00000-0 45868-4 0 9990 2 37854 101.6997 208.8055 0160359 149.3416 211.7287 15.06571136431003 HRBE 1 37855U 11061F 19262.77550495 .00000493 00000-0 32664-4 0 9990 2 37855 101.7122 206.1530 0173087 160.7792 200.0058 15.05582815430786 ALMASAT-1 1 38078U 12006B 19262.81997648 .00045208 45972-5 22468-3 0 9993 2 38078 69.4234 358.9644 0139188 117.0361 21.7202 15.69223360412068 HORYU-2 1 38340U 12025D 19262.12739004 .00000126 00000-0 26397-4 0 9994 2 38340 98.3213 303.4546 0011459 183.2945 176.8190 14.75748871394799 RS-40 1 38735U 12041C 19262.14189283 .00000005 00000-0 -38995-4 0 9994 2 38735 82.4796 170.4593 0018530 34.5762 325.6518 12.42578577324037 BEESAT-3 1 39135U 13015F 19262.00451106 .00000444 00000-0 31767-4 0 9998 2 39135 64.8677 100.9346 0033445 298.9463 60.8310 15.17598276354252 BEESAT-2 1 39136U 13015G 19261.94482376 .00000544 00000-0 37265-4 0 9994 2 39136 64.8682 105.2129 0025149 303.7518 56.1211 15.17017927354161 ZACUBE-1 1 39417U 13066B 19261.98869916 .00000136 00000-0 23288-4 0 9992 2 39417 97.5627 270.3043 0060519 91.3700 269.4448 14.81147742314703 TRITON-1 1 39427U 13066M 19262.36783583 .00000141 00000-0 30681-4 0 9992 2 39427 97.6867 234.0689 0112590 228.3244 130.8284 14.67878789311933 GOMX-1 1 39430U 13066Q 19262.80741621 .00000150 00000-0 36459-4 0 9991 2 39430 97.7544 213.2653 0150828 321.1737 37.8700 14.59285163310189 LO-74 1 39440U 13066AA 19262.63460697 .00000121 00000-0 23745-4 0 9996 2 39440 97.6078 255.6094 0081117 142.1556 218.5396 14.75885386313682 AO-73 1 39444U 13066AE 19262.74836253 .00000187 00000-0 29177-4 0 9994 2 39444 97.5602 273.0552 0059625 82.5984 278.2001 14.81973705313712 SPROUT 1 39770U 14029E 19262.87283782 .00000682 00000-0 81402-4 0 9992 2 39770 97.8880 5.5821 0009327 134.1046 226.0968 14.87424666288682 DUCHIFAT-1 1 40021U 14033M 19262.78202336 .00000196 00000-0 25858-4 0 9997 2 40021 97.9230 187.6828 0014339 101.2174 259.0656 14.90681717285412 NANOSATCBR1 1 40024U 14033Q 19262.32078469 .00000253 00000-0 32194-4 0 9993 2 40024 97.9116 184.4029 0013588 106.0181 254.2534 14.89888419285230 EO-79 1 40025U 14033R 19262.77526321 .00000187 00000-0 25908-4 0 9999 2 40025 97.9029 182.2995 0013779 110.5505 249.7191 14.88982121285179 DTUSAT-2 1 40030U 14033W 19262.32634083 .00000193 00000-0 26677-4 0 9992 2 40030 97.8940 179.8535 0013228 107.8614 252.4047 14.88570410285037 EO-80 1 40032U 14033Y 19261.99932613 .00000197 00000-0 27208-4 0 9991 2 40032 97.8947 179.5288 0013167 109.5590 250.7050 14.88514263284973 ANTELSAT 1 40034U 14033AA 19262.69904941 .00000127 00000-0 26089-4 0 9993 2 40034 97.7477 125.8668 0059156 155.0607 205.3482 14.74133836282376 VELOX-1 1 40057U 14034E 19262.71608217 .00000203 00000-0 35927-4 0 9995 2 40057 98.2457 27.8671 0009965 299.3928 60.6291 14.77707085281501 DAURIA DX 1 1 40071U 14037C 19262.77340455 .00000050 00000-0 13932-4 0 9999 2 40071 98.4378 61.4710 0007483 292.5069 67.5355 14.81290572281031 UKUBE-1 1 40074U 14037F 19262.80833157 .00000212 00000-0 32610-4 0 9996 2 40074 98.4466 70.1061 0003137 287.0932 72.9937 14.84096050281469 HODOYOSHI-1 1 40299U 14070B 19262.79843008 .00000417 00000-0 20381-4 0 9995 2 40299 97.3440 340.6004 0014544 74.6734 74.0913 15.23443555270447 CHUBUSAT-1 1 40300U 14070C 19262.75969303 .00000444 00000-0 22227-4 0 9992 2 40300 97.3202 334.5600 0021141 87.5778 66.1006 15.22169979270171 QSAT-EOS 1 40301U 14070D 19262.75704241 .00001244 00000-0 50510-4 0 9996 2 40301 97.3218 338.0985 0027300 70.6714 45.3583 15.26126353270486 FIREBIRD FU3 1 40377U 15003B 19262.57242296 .00001099 00000-0 46882-4 0 9998 2 40377 99.1194 261.8755 0127208 140.6617 220.3938 15.19021296256023 FIREBIRD FU4 1 40378U 15003C 19262.75673437 .00001111 00000-0 47305-4 0 9990 2 40378 99.1198 262.1794 0127396 139.9345 221.1367 15.19031104256059 GRIFEX 1 40379U 15003D 19262.55644812 .00000671 00000-0 32792-4 0 9998 2 40379 99.1204 255.4312 0135199 160.5303 200.1160 15.15653457255653 NO-84 1 40654U 15025D 19262.19849936 .00006442 00000 0 91908-4 0 7254 2 40654 54.9885 110.4010 0132135 202.4006 157.1224 15.48306111126771 NO-83 1 40655U 15025E 19262.50140898 .00092404 13997-4 28352-3 0 9027 2 40655 54.9637 330.0545 0036486 296.2013 63.5231 15.90727466128431 DEORBITSAIL 1 40719U 15032E 19262.75404794 .00000275 00000-0 46376-4 0 9996 2 40719 97.8961 152.6342 0016933 10.4793 349.6767 14.76792643225990 NUDT-PHONESAT 1 40900U 15049B 19262.81372052 .00001465 00000-0 65182-4 0 9992 2 40900 97.4366 271.2461 0011698 212.5252 232.9714 15.23039535221837 XW-2A 1 40903U 15049E 19262.77325113 .00001310 00000-0 32587-4 0 9998 2 40903 97.3284 306.0311 0013644 161.6189 290.7976 15.42090733224591 XW-2C 1 40906U 15049H 19262.82472516 .00000349 00000-0 21781-4 0 9992 2 40906 97.4704 263.3758 0013259 234.0049 247.9615 15.15750467221109 XW-2D 1 40907U 15049J 19262.71823627 .00000502 00000-0 29597-4 0 9998 2 40907 97.4684 262.9506 0012804 231.0912 215.9106 15.15945841221106 LILACSAT-2 1 40908U 15049K 19262.77635417 .00000432 00000-0 27457-4 0 9998 2 40908 97.4812 261.7380 0014475 238.8317 112.6617 15.13849514220889 XW-2E 1 40909U 15049L 19262.72845126 .00000773 00000-0 41394-4 0 9998 2 40909 97.4610 265.9423 0012239 224.8044 222.7417 15.17904961221309 XW-2F 1 40910U 15049M 19262.91791534 .00000746 00000-0 40645-4 0 9992 2 40910 97.4642 265.2837 0013444 222.2393 207.0180 15.17418293221150 XW-2B 1 40911U 15049N 19262.82753652 .00000335 00000-0 20972-4 0 9997 2 40911 97.4705 263.7243 0012493 231.5020 249.9140 15.15872697221014 DCBB 1 40912U 15049P 19262.81699164 .00000823 00000-0 41628-4 0 9997 2 40912 97.4505 268.9730 0013932 201.7442 282.8895 15.19744268221454 TW-1C 1 40926U 15051B 19262.87217956 .00010312 00000-0 14225-3 0 9992 2 40926 97.1264 308.9737 0008698 37.7204 48.9983 15.57341114224655 TW-1A 1 40928U 15051D 19262.74289025 .00002536 00000-0 62932-4 0 9994 2 40928 97.1390 291.9764 0012719 92.6538 358.9316 15.41196238223502 IO-86 1 40931U 15052B 19260.05938163 .00000679 00000-0 53744-5 0 9993 2 40931 5.9940 132.0905 0013665 353.3940 6.6007 14.76613531214647 LQSat 1 40958U 15057A 19262.14674938 .00000002 00000-0 79973-5 0 9998 2 40958 97.8908 328.8090 0016978 307.2825 52.6834 14.73088810212415 AO-85 1 40967U 15058D 19262.34992404 -.00000032 00000 0 15466-4 0 8114 2 40967 64.7759 237.0074 0189167 172.7423 187.6478 14.75991383121417 ATHENOXAT-1 1 41168U 15077C 19262.22420803 .00001690 00000-0 53806-4 0 9993 2 41168 14.9880 257.8844 0011467 300.6812 59.2379 15.13767087208021 ChubuSat-2 1 41338U 16012B 19262.17853093 .00000284 00000-0 15310-4 0 9993 2 41338 31.0028 276.9960 0013796 299.2788 60.6469 15.00179503196812 ChubuSat-3 1 41339U 16012C 19262.66949166 .00000288 00000-0 15589-4 0 9997 2 41339 31.0111 271.8501 0013777 312.9417 47.0061 15.00353212196887 Horyu-4 1 41340U 16012D 19262.05588221 .00000418 00000-0 24971-4 0 9993 2 41340 31.0045 266.2658 0013947 325.4165 34.5563 15.01310566196901 OUFTI-1 1 41458U 16025C 19262.74757165 .00001085 00000-0 58685-4 0 9998 2 41458 98.1005 354.3234 0166811 44.5531 316.8966 15.06020811186576 e-st@r-II 1 41459U 16025D 19262.85294708 .00001095 00000-0 59575-4 0 9990 2 41459 98.1018 354.0421 0167826 45.7775 315.7077 15.05652035186564 AAUSAT4 1 41460U 16025E 19262.84331555 .00001412 00000-0 73901-4 0 9995 2 41460 98.0956 355.5094 0157801 37.3332 323.8722 15.07612079186705 LO-87 1 41557U 16033B 19262.81737281 .00000826 00000-0 33527-4 0 9992 2 41557 97.4158 349.7749 0012921 335.2451 24.8167 15.27374264184304 NuSat2 1 41558U 16033C 19262.86660766 .00000881 00000-0 33637-4 0 9994 2 41558 97.4188 351.1740 0011979 335.5871 24.4801 15.29286459184375 Lapan A3 1 41603U 16040E 19262.81748505 .00000184 00000-0 11706-4 0 9995 2 41603 97.3510 319.1875 0015061 74.0283 36.7447 15.19742949179887 Swayam 1 41607U 16040J 19262.15129515 .00001037 00000-0 46310-4 0 9997 2 41607 97.3570 322.4420 0014960 69.4073 290.8767 15.23480042179956 Pratham 1 41783U 16059A 19262.13579587 .00000016 00000-0 12310-4 0 9997 2 41783 98.0584 319.6336 0034932 93.4200 267.0999 14.63009117159064 AlSat 1N 1 41789U 16059G 19262.86555410 .00000035 00000-0 15657-4 0 9990 2 41789 98.0610 322.5451 0029577 80.2529 280.1997 14.64261636159283 ScatSat 1 41790U 16059H 19262.82057420 .00000002 00000-0 11481-4 0 9991 2 41790 98.2010 305.6188 0006470 43.9902 316.1789 14.50914214157838 TY-1 1 41844U 16066D 19262.85480619 .00000567 00000-0 26044-4 0 9999 2 41844 97.4056 269.1327 0013771 216.7908 263.7813 15.24390959158883 Pegasus-1 1 41846U 16066F 19262.65657758 .00000111 00000-0 28139-4 0 9991 2 41846 98.7031 304.2955 0366658 322.1684 35.4236 14.37614684149912 CAS-2T 1 41847U 16066G 19262.15183390 -.00000003 00000-0 10832-4 0 9995 2 41847 98.6972 304.3103 0365164 319.9903 37.4892 14.38005137150281 EO-88 1 42017U 17008BX 19262.11330008 .00001043 00000-0 43737-4 0 9992 2 42017 97.3952 328.2260 0005866 188.2089 171.9055 15.25713264144019 nSIGHT1 1 42726U 98067MF 19262.40821054 .00022718 00000-0 15466-3 0 9990 2 42726 51.6355 193.3722 0004874 152.8830 207.2425 15.74785912132417 CAS-4B 1 42759U 17034B 19262.78202546 .00000127 00000-0 21268-4 0 9999 2 42759 43.0192 79.4874 0010153 117.7863 61.7351 15.09633546124901 CAS-4A 1 42761U 17034D 19262.80887731 -.00000034 00000-0 11436-4 0 9994 2 42761 43.0186 78.8146 0010479 119.8762 72.3027 15.09709616124904 UCLSat 1 42765U 17036A 19262.38582926 .00000771 00000-0 35847-4 0 9990 2 42765 97.3421 318.3762 0009747 262.6901 97.3228 15.22888008124577 NIUSat 1 42766U 17036B 19262.38775922 .00000599 00000-0 29833-4 0 9997 2 42766 97.3417 316.5697 0014006 253.5316 106.4381 15.21226041124320 LituanicaSAT 2 1 42768U 17036D 19262.16169461 .00001352 00000-0 60298-4 0 9998 2 42768 97.3460 317.8166 0013407 252.7137 107.2633 15.23039356124389 Aalto 1 1 42775U 17036L 19262.40083461 .00000478 00000-0 24322-4 0 9994 2 42775 97.3403 316.9221 0012335 252.9760 107.0125 15.21435570124301 URSA MAIOR 1 42776U 17036M 19262.15601246 .00000560 00000-0 27827-4 0 9999 2 42776 97.3413 316.8616 0012165 253.7348 106.2550 15.21577101124278 Max Valier Sat 1 42778U 17036P 19261.69922004 .00000601 00000-0 29220-4 0 9992 2 42778 97.3456 317.3002 0010665 259.5845 100.4190 15.22133013124234 Pegasus 1 42784U 17036V 19262.35988669 .00000718 00000-0 33833-4 0 9996 2 42784 97.3424 318.1414 0010336 263.5889 96.4170 15.22630858124365 NUDATSat 1 42787U 17036Y 19261.96919929 .00001361 00000-0 59648-4 0 9995 2 42787 097.3454 318.5935 0010334 269.6311 090.3740 15.23661995124192 SUCHAI 1 1 42788U 17036Z 19262.73531331 .00000845 00000-0 38798-4 0 9998 2 42788 97.3429 318.8718 0009897 260.8723 99.1394 15.23071225124518 SKCUBE 1 42789U 17036AA 19261.11485980 .00000828 00000-0 38197-4 0 9992 2 42789 097.3427 317.2113 0009744 267.6580 092.3541 15.22958055124182 VZLUSAT 1 1 42790U 17036AB 19261.75924656 .00001158 00000-0 51172-4 0 9997 2 42790 097.3443 318.3899 0009318 263.4291 096.5885 15.23652336124311 VENTA 1 1 42791U 17036AC 19261.94241661 .00000831 00000-0 38281-4 0 9990 2 42791 097.3425 318.0714 0009407 264.9818 095.0345 15.22969468124305 Robusta 1B 1 42792U 17036AD 19262.15240328 .00000880 00000-0 40210-4 0 9993 2 42792 97.3427 318.3974 0009343 264.1544 95.8628 15.23134851124365 D-SAT 1 42794U 17036AF 19262.07782939 .00000231 00000-0 25451-4 0 9995 2 42794 97.5310 302.6760 0126207 193.0179 166.7773 14.91133321122106 TechnoSat 1 42829U 17042E 19262.76242537 .00000132 00000-0 18728-4 0 9991 2 42829 97.5509 151.7130 0015702 108.0428 252.2503 14.90998694118804 TOMSK-TPU 120 1 42910U 98067MZ 19262.76783579 .00157656 21302-4 34056-3 0 9991 2 42910 51.6318 160.3254 0005940 168.1793 293.5046 15.98057026119830 TNS 0-2 1 42914U 98067ND 19262.72026543 .00168701 23160-4 31981-3 0 9993 2 42914 51.6275 160.3253 0004729 178.6650 181.4373 16.00345044119828 QIKCOM-1 1 42983U 98067NF 19262.77380976 .00002778 00000-0 40935-4 0 9992 2 42983 51.6391 232.7589 0004687 110.3786 249.7711 15.59347263107868 AO-91 1 43017U 17073E 19262.03986663 .00000217 00000-0 22793-4 0 9991 2 43017 97.7201 179.7854 0257005 217.4604 140.8454 14.78628274 98908 EcAMSat 1 43019U 98067NG 19262.78221634 .00005299 00000-0 65189-4 0 9998 2 43019 51.6399 226.1161 0005289 95.4603 264.6994 15.62106082190272 PICSAT 1 43132U 18004X 19262.30410713 .00000836 00000-0 37794-4 0 9996 2 43132 97.4808 329.9119 0008154 293.3934 66.6445 15.23732718 93604 AO-92 1 43137U 18004AC 19262.17188094 .00000664 00000-0 30771-4 0 9997 2 43137 97.4797 329.7356 0007751 296.6004 63.4438 15.23588546 93574 TianYi 2 1 43155U 18008A 19262.78695976 .00000244 00000-0 18257-4 0 9999 2 43155 97.4796 333.3451 0018019 9.3775 136.1657 15.11235111 91880 Zhou Enlai 1 43156U 18008B 19262.79684985 .00000558 00000-0 37412-4 0 9991 2 43156 97.4843 333.2366 0014964 8.3194 129.8345 15.10747901 91851 TianYi 6 1 43158U 18008D 19262.79812646 .00000648 00000-0 43301-4 0 9994 2 43158 97.4789 332.6157 0013672 6.6297 115.3960 15.10329841 91811 S-Net G 1 43186U 18014G 19261.82129054 .00000549 00000-0 53136-4 0 9996 2 43186 97.7016 168.9033 0012410 61.7896 298.4577 14.96674897 88918 S-Net H 1 43187U 18014H 19262.28910398 .00000580 00000-0 55875-4 0 9994 2 43187 97.7015 169.3499 0012421 60.3120 299.9336 14.96675505 88989 S-Net J 1 43188U 18014J 19261.82092645 .00000535 00000-0 51857-4 0 9996 2 43188 97.7016 168.9087 0012392 61.8423 298.4049 14.96674542 88916 S-Net K 1 43189U 18014K 19261.82126956 .00000547 00000-0 52991-4 0 9993 2 43189 97.7014 168.8863 0012385 61.7446 298.5024 14.96674435 87466 FMN 1 1 43192U 18015A 19262.83175200 .00001412 00000-0 60187-4 0 9994 2 43192 97.4112 29.4731 0015655 331.3934 156.5967 15.24514161 90502 Shaonian Xing 1 43199U 18015H 19262.87664090 .00001070 00000-0 45680-4 0 9996 2 43199 97.3897 28.4462 0017006 342.0387 134.4696 15.24965521 90561 1KUNS-PF 1 43466U 98067NP 19262.35279566 .00021142 00000-0 18197-3 0 9995 2 43466 51.6355 223.1238 0002056 95.7281 264.3950 15.69260910 77457 UBAKUSAT 1 43467U 98067NQ 19262.34063251 .00011567 00000-0 12286-3 0 9990 2 43467 51.6360 229.8084 0003190 70.5087 289.6253 15.64567433 77373 Irazu 1 43468U 98067NR 19262.13870874 .00036761 00000-0 26063-3 0 9996 2 43468 51.6341 218.6385 0002282 97.4582 262.6676 15.73566609177489 EnduroSat One 1 43551U 98067NZ 19262.53500936 .00014466 00000-0 14881-3 0 9995 2 43551 51.6362 231.1071 0006044 126.9021 233.2529 15.65128449 67603 EQUISat 1 43552U 98067PA 19262.34342732 .00011583 00000-0 12839-3 0 9991 2 43552 51.6377 234.3630 0006399 125.8190 234.3400 15.63458806 67504 UiTMSat 1 1 43589U 98067PD 19262.33452395 .00012952 00000-0 14102-3 0 9993 2 43589 51.6348 234.9771 0005635 131.1589 228.9893 15.63795534 63231 Maya 1 1 43590U 98067PE 19262.32854972 .00012895 00000-0 14033-3 0 9990 2 43590 51.6351 234.9426 0005802 132.8152 227.3331 15.63812514 63164 Bhutan 1 1 43591U 98067PF 19262.31576888 .00012589 00000-0 13682-3 0 9996 2 43591 51.6362 234.8881 0005831 132.9931 227.1553 15.63872189 63167 SiriusSat 1 1 43595U 98067PG 19262.16143258 .00013142 00000-0 14796-3 0 9997 2 43595 51.6351 237.5779 0004335 93.4139 266.7351 15.62921485 62295 SiriusSat 2 1 43596U 98067PH 19262.13742958 .00013360 00000-0 15126-3 0 9997 2 43596 51.6362 238.2126 0004815 93.9770 266.1775 15.62756643 62286 Tanusha-3 1 43597U 98067PJ 19262.79660453 .00017389 00000-0 17937-3 0 9996 2 43597 51.6345 232.0354 0004363 107.1036 253.0437 15.64898989 62422 SurfSat 1 43614U 18070B 19262.13947619 .00002065 00000-0 55631-4 0 9991 2 43614 93.0308 41.8251 0013780 316.6692 43.3477 15.37849682 56615 CP-7 DAVE 1 43615U 18070C 19262.41071798 .00001938 00000-0 52378-4 0 9992 2 43615 93.0310 41.9368 0013994 314.5975 45.4136 15.37756766 56656 ELFIN-B 1 43616U 18070D 19262.63777014 .00002832 00000-0 74544-4 0 9994 2 43616 93.0275 41.9382 0014707 317.0228 42.9876 15.38519375 56708 ELFIN-A 1 43617U 18070E 19262.43355329 .00003003 00000-0 78915-4 0 9991 2 43617 93.0330 42.1413 0013854 314.5676 45.4446 15.38579025 56675 STARS-Me Mother 1 43640U 98067PQ 19262.36870531 .00007337 00000-0 96233-4 0 9997 2 43640 51.6364 241.9994 0006097 83.6786 276.4902 15.59705403 54189 CubeBel 1 1 43666U 18083E 19262.78969755 .00000727 00000-0 39398-4 0 9993 2 43666 97.5151 286.6183 0013970 221.3278 257.3622 15.17716071 49404 Changshagaoxin 1 43669U 18083H 19262.79934940 .00000458 00000-0 26640-4 0 9992 2 43669 97.5025 285.6515 0010048 210.1197 149.9460 15.16886802 49342 Ten-Koh 1 43677U 18084G 19262.15144210 .00000062 00000-0 12237-4 0 9993 2 43677 97.8599 15.3239 0015501 341.9855 18.0811 14.90192361 48384 PO-101 1 43678U 18084H 19262.45154645 .00000082 00000-0 13829-4 0 9990 2 43678 97.8607 16.3449 0009975 5.2761 354.8561 14.91570924 48472 IRVINE 01 1 43693U 18088D 19262.74285814 .00001591 00000-0 68375-4 0 9998 2 43693 85.0325 256.6485 0017142 203.9699 156.0746 15.21660115 47513 QO-100 1 43700U 18090A 19261.85003288 .00000141 00000-0 00000-0 0 9991 2 43700 000.0200 156.6838 0001667 045.3909 127.2035 01.00272865002974 Reaktor Hello World 1 43743U 18096AA 19262.84322444 .00000857 00000-0 35264-4 0 9990 2 43743 97.4523 332.7124 0018868 12.0183 98.3549 15.26766971 44940 MinXSS-2 1 43758U 18099A 19262.82785607 .00000368 00000-0 38432-4 0 9998 2 43758 97.7385 333.7504 0016132 22.4001 337.7921 14.95461868 43354 AO-95 1 43770U 18099N 19262.14786463 .00000582 00000-0 58635-4 0 9993 2 43770 97.7384 332.8049 0015245 31.5045 328.7085 14.94810345 43239 RANGE-B 1 43772U 18099Q 19262.26376286 .00000306 00000-0 33250-4 0 9996 2 43772 97.7438 333.1500 0014443 18.6029 341.5717 14.94929837 43247 RANGE-A 1 43773U 18099R 19262.33950391 .00000428 00000-0 44504-4 0 9999 2 43773 97.7329 332.8265 0013862 18.9414 341.2319 14.94833746 43255 MOVE-II 1 43780U 18099Y 19262.16321110 .00000373 00000-0 39244-4 0 9993 2 43780 97.7376 332.8882 0014226 29.8379 330.3650 14.95125952 43224 SNUSat 2 1 43782U 18099AA 19262.15898734 .00000359 00000-0 37976-4 0 9999 2 43782 97.7381 332.9285 0013219 19.8815 340.2918 14.95091691 43235 SnugLite 1 43784U 18099AC 19262.74627126 .00000590 00000-0 58879-4 0 9993 2 43784 97.7344 333.4133 0015583 24.7510 335.4455 14.95176038 43339 ITASat 1 1 43786U 18099AE 19261.94109729 .00000470 00000-0 48004-4 0 9996 2 43786 097.7398 332.8225 0015698 026.0997 334.1012 14.95173631043214 EAGLET 1 1 43790U 18099AJ 19262.73782930 .00000416 00000-0 42673-4 0 9996 2 43790 97.7385 333.7426 0013973 28.7343 331.4644 14.95546033 43037 ESEO 1 43792U 18099AL 19262.40159670 .00000176 00000-0 21087-4 0 9990 2 43792 97.7363 333.3449 0013811 26.9893 333.2043 14.95524668 43041 CSIM 1 43793U 18099AM 19262.37527130 -.00000075 00000-0 -15119-5 0 9997 2 43793 97.7337 333.2152 0013523 25.1158 335.0718 14.95765785 43011 Astrocast 0.1 1 43798U 18099AS 19262.22535628 .00000520 00000-0 51756-4 0 9996 2 43798 97.7361 333.2842 0012726 9.3299 350.8146 14.95758470 43252 JO-97 1 43803U 18099AX 19262.78747839 -.00000073 00000-0 -14031-5 0 9994 2 43803 97.7355 333.5514 0015653 23.5811 336.6124 14.95313686 43334 Suomi 100 1 43804U 18099AY 19262.72014694 -.00000115 00000-0 -51668-5 0 9999 2 43804 97.7353 333.4819 0015747 23.8538 336.3409 14.95311513 43333 Al Farabi 2 1 43805U 18099AZ 19262.84554729 -.00000178 00000-0 -10848-4 0 9994 2 43805 97.7358 333.6308 0015800 23.6500 336.5444 14.95380927 43359 PWSat 2 1 43814U 18099BJ 19262.24918955 .00012268 00000-0 94788-3 0 9998 2 43814 97.7711 335.1777 0008413 49.8010 310.3940 15.01645088 42739 CHOMPTT 1 43855U 18104G 19262.24332646 .00001075 00000-0 44502-4 0 9991 2 43855 85.0392 355.2481 0017404 342.0850 17.9777 15.22498128 42107 ISAT 1 43879U 18111D 19262.83117003 .00000659 00000-0 63747-4 0 9997 2 43879 97.7103 169.4582 0014927 74.4659 285.8209 14.96036709 37877 UWE-4 1 43880U 18111E 19262.31971378 -.00000228 00000-0 -14998-4 0 9993 2 43880 97.7112 169.0870 0013872 76.0585 284.2178 14.96277731 37802 Sparrow 1 43881U 18111F 19262.71278153 .00000012 00000-0 62125-5 0 9994 2 43881 97.7118 169.5067 0014122 73.8769 286.4006 14.96326886 37855 Lume 1 1 43908U 18111AJ 19261.96182206 .00000849 00000-0 37225-4 0 9993 2 43908 97.2809 164.6646 0022524 29.9122 330.3397 15.24466396 40507 FO-98 1 43933U 19003B 19262.74286446 .00000560 00000-0 27601-4 0 9997 2 43933 97.2722 317.2652 0019361 115.2593 27.4868 15.21727246 37209 FO-99 1 43937U 19003F 19262.69275749 .00000925 00000-0 41052-4 0 9990 2 43937 97.2684 317.7490 0026143 103.3903 355.2794 15.23729151 37247 Delphini 1 1 44030U 98067PW 19262.33750257 .00008713 00000-0 12037-3 0 9998 2 44030 51.6368 247.0508 0005053 122.2885 237.8597 15.58023052 35986 MYSat 1 1 44045U 18092F 19261.51266765 .00001747 00000-0 61311-4 0 9999 2 44045 51.6449 286.1403 0012551 59.9848 300.2369 15.35248028 33343 AstroCast 0.2 1 44083U 19018F 19262.74038619 .00000372 00000-0 19666-4 0 9990 2 44083 97.4597 321.9496 0015169 48.1543 312.0985 15.21448775 26069 AISTechSat 3 1 44103U 19018AB 19262.75480447 .00000613 00000-0 29232-4 0 9992 2 44103 97.4482 321.9953 0015154 62.8524 62.7264 15.22733633 26081 AISat 1 1 44104U 19018AC 19262.76998976 .00000659 00000-0 23775-4 0 9991 2 44104 97.5006 325.2339 0060599 96.7926 264.0215 15.30583074 26247 Raavana-1 1 44329U 98067QE 19261.44581446 .00007069 00000-0 11875-3 0 9994 2 44329 51.6399 257.6130 0007978 64.8484 295.3333 15.52948387 14517 Uguisu 1 44330U 98067QF 19261.44810774 .00007058 00000-0 11875-3 0 9993 2 44330 51.6398 257.6280 0007962 63.6457 296.5350 15.52907644 14494 NepaliSat-1 1 44331U 98067QG 19261.44372110 .00007067 00000-0 11858-3 0 9992 2 44331 51.6399 257.5996 0007989 65.9801 294.2025 15.52982820 14501 Prox-1 1 44339U 19036A 19262.40195765 -.00000482 00000-0 -16608-3 0 9999 2 44339 24.0000 23.2520 0010352 49.6297 310.5622 14.52652223 12524 OBJECT H 1 44346U 19036H 19262.36077784 .00008903 00000-0 13573-3 0 9994 2 44346 28.5259 1.6619 0388881 295.4496 60.6481 14.97304798 12901 OBJECT J 1 44347U 19036J 19261.73937487 .00024505 00000-0 37717-3 0 9992 2 44347 028.5372 004.4413 0374889 290.8916 065.1897 15.00531120012828 OBJECT K 1 44348U 19036K 19261.73451667 .00007753 00000-0 11783-3 0 9995 2 44348 028.5218 005.2936 0386828 289.1643 066.7489 14.97630351012815 Armadillo 1 44352U 19036P 19262.44908387 .00010680 00000-0 16454-3 0 9998 2 44352 28.5352 0.4894 0383799 296.9622 59.2290 14.98276092 12867 NO-104 1 44354U 19036R 19262.35910109 .00007906 00000-0 11917-3 0 9991 2 44354 28.5339 0.6812 0384067 296.2776 59.8838 14.98391184 12895 NO-103 1 44355U 19036S 19262.40413508 .00013183 00000-0 20140-3 0 9991 2 44355 28.5357 0.0819 0379818 297.2923 58.9477 14.99407806 12901 Oculus-ASR 1 44356U 19036T 19261.56951444 .00033391 00000-0 46540-3 0 9999 2 44356 28.5330 4.0082 0373454 290.6457 65.4249 15.02993911 12809 CP9 1 44360U 19036X 19262.45011878 .00019904 00000-0 27105-3 0 9991 2 44360 28.5223 358.3605 0381961 300.0832 56.2427 15.01593364 12809 Move-IIb 1 44398U 19038N 19262.69068782 .00001115 00000-0 68843-4 0 9996 2 44398 97.4972 223.1599 0025332 347.4929 12.5669 15.11692269 11511 SONATE 1 44400U 19038Q 19262.68928491 .00000378 00000-0 25886-4 0 9991 2 44400 97.4986 223.1661 0025020 345.5216 14.5294 15.11676195 11518 BeeSat 9 1 44412U 19038AC 19261.95440121 .00000740 00000-0 46852-4 0 9991 2 44412 97.4981 222.4584 0022923 354.3775 5.7195 15.11830588 11092 JAISAT-1 1 44419U 19038F 19262.39282605 .00000634 00000-0 40209-4 0 9990 2 44419 97.4985 222.9471 0021709 353.1041 6.9888 15.12323302 11473 LightSail-2 1 44420U 19036AC 19262.40034101 .00001744 00000-0 36345-3 0 9996 2 44420 24.0067 23.2386 0022388 21.5947 338.6274 14.52984525 10661 Taurus 1 1 44530U 19059C 19262.80511490 -.00000041 00000-0 13583-5 0 9999 2 44530 98.5879 336.1378 0013656 250.6788 109.2890 14.45247871 1106 /EX
